Date,TemperatureHighF,TemperatureAvgF,TemperatureLowF,DewpointHighF,DewpointAvgF,DewpointLowF,HumidityHigh,HumidityAvg,HumidityLow,PressureMaxIn,PressureMinIn,WindSpeedMaxMPH,WindSpeedAvgMPH,GustSpeedMaxMPH,PrecipitationSumIn
2013-2-1,18.6,16.0,12.2,11.1,7.6,-18.3,77,69,60,30.16,29.84,16,7,16,0.00
2013-2-2,19.5,14.8,9.5,12.3,7.8,2.7,79,73,65,30.12,29.96,13,3,13,0.00
2013-2-3,19.5,13.8,8.7,12.6,6.8,2.1,77,73,67,29.99,29.81,9,3,9,0.00
2013-2-4,24.0,16.1,10.9,15.6,9.6,4.8,80,75,68,29.98,29.87,8,0,8,0.00
2013-2-5,27.5,17.8,6.0,21.9,11.6,0.3,79,76,69,29.95,29.73,13,3,13,0.00
2013-2-6,32.1,22.5,11.6,19.9,14.2,6.0,80,70,59,30.24,29.94,10,1,10,0.02
2013-2-7,35.2,29.6,25.3,27.2,22.3,17.2,82,74,67,30.23,29.90,9,2,9,0.02
2013-2-8,31.8,25.3,15.6,25.1,19.3,9.4,87,78,64,30.33,29.86,18,6,18,0.16
2013-2-9,32.7,18.3,6.0,21.1,11.0,0.3,80,73,60,30.41,30.22,9,1,9,0.08
2013-2-10,39.9,26.5,10.9,34.2,19.3,5.0,85,74,60,30.23,29.60,14,1,14,0.41
2013-2-11,41.5,36.7,31.8,38.2,30.6,25.1,88,78,68,29.79,29.46,25,9,25,0.00
2013-2-12,31.8,29.5,26.2,25.1,21.7,-9.4,76,72,69,29.99,29.79,61,7,61,0.00
2013-2-13,34.8,29.8,25.8,26.4,22.7,18.4,78,75,70,29.89,29.71,12,3,12,0.00
2013-2-14,40.1,34.2,29.1,34.4,28.9,23.4,86,81,74,29.80,29.59,21,4,21,0.04
2013-2-15,29.1,25.1,21.3,23.5,16.2,13.1,80,69,58,30.10,29.80,13,4,13,0.00
2013-2-16,24.4,20.1,13.2,17.1,13.0,-13.8,79,74,66,30.07,29.97,10,1,10,0.00
2013-2-17,25.3,15.2,6.0,11.7,5.9,-0.2,77,67,53,30.17,30.07,9,1,9,0.04
2013-2-18,43.3,30.8,16.3,34.5,19.4,4.2,73,62,53,30.15,29.49,16,4,16,0.00
2013-2-19,44.2,30.0,18.3,37.5,23.5,12.0,86,77,70,29.86,29.31,22,9,22,0.53
2013-2-20,23.1,19.2,15.8,13.0,10.1,6.9,79,67,59,30.21,29.85,18,6,18,0.00
2013-2-21,24.4,19.9,-1.4,17.0,11.6,-8.2,80,70,60,30.38,30.20,11,4,11,0.00
2013-2-22,31.6,26.4,20.8,27.9,21.3,15.2,86,81,75,30.26,29.82,16,2,16,0.00
2013-2-23,32.7,29.7,25.5,28.9,24.0,20.2,87,79,70,29.87,29.81,16,6,16,0.00
2013-2-24,41.7,30.5,23.5,28.9,22.8,-23.4,86,74,6,30.11,29.84,10,2,10,0.18
2013-2-25,44.4,33.9,27.8,28.4,23.4,19.3,75,66,51,30.20,30.10,8,1,8,0.00
2013-2-26,35.7,30.5,24.0,29.4,24.2,17.4,89,77,70,30.13,29.56,18,4,18,0.00
2013-2-27,34.8,33.2,10.5,31.9,30.3,7.9,90,89,88,29.57,29.49,8,1,8,0.94
2013-2-28,35.4,32.6,28.9,30.9,28.1,22.0,90,83,75,29.98,29.55,13,4,13,0.28